STARLINK-34408

Last updated on Thu Jul 03 2025 00:02:06 GMT+0000 (Coordinated Universal Time)

1 64363U 25126V 25183.58335648 -.01405664 00000+0 -16988-1 0 9999 2 64363 69.9993 310.1949 0003201 268.4037 330.9875 15.63223667 4327
UTC large
Height (km)
Speed (km/s)
/
Latitude / Longitude
Inclination (degrees)
Orbital Period (minutes)
Azimuth
Elevation
Range (km)
Doppler Factor

Next 0 passes for location: London (51.5072 / 0.1276)

Sorry there are no passes over London.